Simultaneous Nadir Overpasses (SNOs) Predictions

Prediction of SNOs between GOES-15 and METOP-C Satellite Orbit:

Table of predicted SNOs for the next 14.0 days since TLE Epoch: 6/14/2019
Index Date Time (GOES-15) GOES-15 Lat,Lon METOP-C Lat,Lon Distance(km) Time Diff (sec)
1 06/15/2019 06:00:18 0.15,-128.26 0.26,-127.75 58.17 80
2 06/16/2019 18:21:50 -0.13,-128.28 0.77,-132.31 459.47 80
3 06/17/2019 17:58:31 -0.15,-128.26 -0.38,-127.33 107.18 80
4 06/19/2019 06:20:11 0.14,-128.18 -0.71,-131.91 424.73 80
5 06/20/2019 05:56:52 0.15,-128.16 0.44,-126.92 141.38 80
6 06/21/2019 18:18:24 -0.14,-128.17 0.60,-131.48 377.24 80
7 06/22/2019 17:55:06 -0.16,-128.15 -0.55,-126.50 189.03 80
8 06/24/2019 06:16:45 0.14,-128.07 -0.53,-131.08 342.92 80
9 06/25/2019 05:53:26 0.16,-128.04 0.57,-126.08 222.88 80
10 06/26/2019 18:14:59 -0.14,-128.05 0.43,-130.65 296.60 80
11 06/27/2019 17:51:40 -0.15,-128.02 -0.66,-125.65 269.22 80




NCC Satellite Simultaneous Nadir Overpasses (SNOs) Prediction Service
